Flight Track Log - Related Links

Times and Time Zones

All times are in EDT time to prevent confusion due to time zone crossing. See the N27XP flight status page for this flight to view local times or setup timezone preferences in your user account.

Time Position Orientation Groundspeed Altitude Reporting Facility
EDT Latitude Longitude Course Direction KTS MPH feet Rate Location/Type
05:37PM 42.4667 -71.2667 200° South 177 204 1,000  Level KA90
05:39PM 42.4000 -71.3000 200° South 255 293 3,000 2,042 Climbing KA90
05:40PM 42.3539 -71.3867 234° Southwest 292 336 5,900 2,504 Climbing Boston Center
05:41PM 42.3192 -71.4825 244° Southwest 299 344 8,300 2,319 Climbing Boston Center
05:42PM 42.2783 -71.5869 242° Southwest 310 357 10,500 2,000 Climbing Boston Center
05:43PM 42.2017 -71.6581 215° Southwest 321 369 12,300 1,770 Climbing Boston Center
05:44PM 42.1250 -71.7181 210° Southwest 349 402 14,100 2,034 Climbing Boston Center
05:45PM 42.0358 -71.7917 212° Southwest 354 407 16,300 2,067 Climbing Boston Center
05:46PM 41.9592 -71.8483 209° Southwest 354 407 18,200 1,736 Climbing Boston Center
05:47PM 41.8739 -71.9186 212° Southwest 359 413 19,800 1,736 Climbing Boston Center
05:48PM 41.7889 -71.9836 210° Southwest 354 407 21,700 1,770 Climbing Boston Center
05:49PM 41.7058 -72.0508 211° Southwest 354 407 23,400 1,627 Climbing Boston Center
05:50PM 41.6225 -72.1125 209° Southwest 354 407 24,900 1,385 Climbing Boston Center
05:51PM 41.5311 -72.1822 210° Southwest 359 413 26,100 1,190 Climbing Boston Center
05:52PM 41.4394 -72.2544 211° Southwest 375 432 27,300 1,220 Climbing Boston Center
05:53PM 41.3478 -72.3211 209° Southwest 380 437 28,600 1,200 Climbing Boston Center
05:54PM 41.2564 -72.4097 216° Southwest 390 449 29,700 1,017 Climbing Boston Center
05:55PM 41.1708 -72.4981 218° Southwest 401 461 30,600 793 Climbing Boston Center
05:56PM 41.0833 -72.5833 216° Southwest 401 461 31,300 793 Climbing Boston Center
05:57PM 40.9975 -72.6711 218° Southwest 401 461 32,200 850 Climbing Boston Center
05:58PM 40.9142 -72.7586 218° Southwest 390 449 33,000 712 Climbing Boston Center
05:59PM 40.8200 -72.8486 216° Southwest 390 449 33,600 605 Climbing Boston Center
06:00PM 40.7425 -72.9278 218° Southwest 390 449 34,200 492 Climbing Boston Center
06:01PM 40.6525 -73.0092 214° Southwest 390 449 34,600 504 Climbing Boston Center
06:02PM 40.5625 -73.0958 216° Southwest 398 458 35,200 583 Climbing Boston Center
06:04PM 40.3889 -73.2767 218° Southwest 397 457 36,300 573 Climbing Washington Center
06:05PM 40.2969 -73.3667 217° Southwest 409 471 36,900 492 Climbing Washington Center
06:06PM 40.2047 -73.4567 217° Southwest 415 478 37,300 496 Climbing Washington Center
06:07PM 40.0981 -73.5519 214° Southwest 426 490 37,900 356 Climbing Washington Center
06:08PM 40.0019 -73.6442 216° Southwest 432 497 38,000 51 Climbing Washington Center
06:09PM 39.9056 -73.7414 218° Southwest 441 507 38,000  Level Washington Center
06:10PM 39.8089 -73.8386 218° Southwest 441 507 38,000  Level Washington Center
06:11PM 39.7147 -73.9433 221° Southwest 447 514 38,000  Level Washington Center
06:12PM 39.6181 -74.0481 220° Southwest 453 521 38,000  Level Washington Center
06:13PM 39.5172 -74.1522 219° Southwest 463 533 38,000  Level Washington Center
06:14PM 39.4164 -74.2619 220° Southwest 469 540 38,000  Level Washington Center
06:15PM 39.3175 -74.3683 220° Southwest 469 540 38,000  Level Washington Center
06:16PM 39.2144 -74.4772 219° Southwest 469 540 38,000  Level Washington Center
06:17PM 39.1153 -74.5831 220° Southwest 469 540 38,000  Level Washington Center
06:18PM 39.0161 -74.6914 220° Southwest 469 540 38,000  Level Washington Center
06:19PM 38.9147 -74.7939 218° Southwest 469 540 38,000  Level Washington Center
06:20PM 38.8133 -74.9017 220° Southwest 469 540 38,000  Level Washington Center
06:21PM 38.7158 -75.0117 221° Southwest 464 534 38,000 -49 Level Washington Center
06:22PM 38.6161 -75.1056 216° Southwest 464 534 37,900 -298 Descending Washington Center
06:23PM 38.5186 -75.2122 221° Southwest 464 534 37,400 -508 Descending Washington Center
06:24PM 38.4189 -75.3133 218° Southwest 464 534 36,900 -555 Descending Washington Center
06:25PM 38.3211 -75.4197 220° Southwest 464 534 36,300 -443 Descending Washington Center
06:26PM 38.2314 -75.4992 215° Southwest 464 534 36,000 -151 Descending Washington Center
06:27PM 38.1378 -75.5969 219° Southwest 452 520 36,000  Level Washington Center
06:28PM 38.0356 -75.7103 221° Southwest 442 509 36,000  Level Washington Center
06:29PM 37.9394 -75.8050 218° Southwest 442 509 36,000  Level Washington Center
06:30PM 37.8517 -75.8889 217° Southwest 442 509 36,000 -151 Level Washington Center
06:31PM 37.7492 -75.9989 220° Southwest 442 509 35,700 -595 Descending Washington Center
06:32PM 37.6508 -76.0953 218° Southwest 447 514 34,800 -744 Descending Washington Center
06:33PM 37.5564 -76.1814 216° Southwest 457 526 34,200 -397 Descending Washington Center
06:34PM 37.4581 -76.2800 219° Southwest 462 532 34,000 -102 Descending Washington Center
06:35PM 37.3614 -76.3758 218° Southwest 462 532 34,000  Level Washington Center
06:36PM 37.2647 -76.4714 218° Southwest 457 526 34,000 -298 Level Washington Center
06:37PM 37.1661 -76.5667 218° Southwest 457 526 33,400 -836 Descending Washington Center
06:38PM 37.0692 -76.6642 219° Southwest 457 526 32,300 -1,059 Descending Washington Center
06:39PM 36.9703 -76.7617 218° Southwest 457 526 31,300 -1,109 Descending Washington Center
06:40PM 36.8692 -76.8589 218° Southwest 457 526 30,100 -1,190 Descending Washington Center
06:41PM 36.7700 -76.9558 218° Southwest 457 526 28,900 -1,210 Descending Washington Center
06:42PM 36.6853 -77.0683 227° Southwest 452 520 27,700 -1,261 Descending Washington Center
06:43PM 36.6231 -77.2042 240° Southwest 448 516 26,400 -1,140 Descending Washington Center
06:44PM 36.5628 -77.3400 241° Southwest 453 521 25,400 -793 Descending Washington Center
06:45PM 36.5022 -77.4706 240° Southwest 448 516 24,800 -807 Descending Washington Center
06:46PM 36.4375 -77.6031 239° Southwest 448 516 23,800 -1,059 Descending Washington Center
06:47PM 36.3811 -77.7333 242° Southwest 437 503 22,700 -893 Descending Washington Center
06:48PM 36.3181 -77.8631 239° Southwest 437 503 22,000 -347 Descending Washington Center
06:49PM 36.2572 -77.9900 239° Southwest 437 503 22,000 -397 Level Washington Center
06:50PM 36.1961 -78.1194 240° Southwest 437 503 21,200 -1,327 Descending Washington Center
06:51PM 36.1350 -78.2408 238° Southwest 422 486 19,500 -1,752 Descending Washington Center
06:52PM 36.0783 -78.3572 239° Southwest 386 444 17,900 -1,672 Descending Washington Center
06:53PM 36.0189 -78.4811 239° Southwest 393 452 16,100 -1,536 Descending Washington Center
06:54PM 35.9683 -78.5894 240° Southwest 397 457 14,700 -1,594 Descending Washington Center
06:55PM 35.9047 -78.7153 238° Southwest 383 441 12,700 -1,686 Descending Washington Center
06:56PM 35.8519 -78.8081 235° Southwest 397 457 11,300 -1,627 Descending Washington Center
06:57PM 35.7622 -78.8889 216° Southwest 371 427 9,500 -1,714 Descending Washington Center
06:58PM 35.6936 -78.9500 216° Southwest 344 396 7,900 -1,613 Descending Washington Center
06:59PM 35.6317 -79.0089 218° Southwest 315 362 6,300 -1,475 Descending Washington Center
07:00PM 35.5694 -79.0647 216° Southwest 293 337 4,900 -1,377 Descending Washington Center
07:02PM 35.4163 -79.2129 223° Southwest  Level FlightAware Approximate
07:09PM 35.2333 -79.3833 219° Southwest  Level FlightAware Approximate

Login

Don't have an account? Register now (free) for customized features, flight alerts, and more!